Weather History for McCall, ID

Change the Weather History Date:

Tuesday, March 4, 2014

  Actual Average Record
Temperature  
Mean Temperature 34 °F 26 °F  
Max Temperature 40 °F 37 °F 56 °F (1986)
Min Temperature 28 °F 14 °F -11 °F (1976)
Degree Days  
Heating Degree Days 31 39  
Month to date heating degree days 122 158  
Since 1 July heating degree days 6116 6833  
Cooling Degree Days 0 0  
Month to date cooling degree days 0 0  
Year to date cooling degree days 0 0  
Moisture  
Dew Point 29 °F    
Average Humidity 82    
Maximum Humidity 100    
Minimum Humidity 64    
Precipitation  
Precipitation T in 0.04 in 0.90 in (1951)
Month to date precipitation 1.07 0.21  
Year to date precipitation 5.88 3.68  
Sea Level Pressure  
Sea Level Pressure 30.01 in    
Wind  
Wind Speed 2 mph (South)    
Max Wind Speed 15 mph    
Max Gust Speed 18 mph    
Visibility 4 miles    
Events Fog , Rain    
T = Trace of Precipitation, MM = Missing Value Source: NWS Daily Summary

Daily Weather History Graph

Daily Weather History Graph

Search for Another Location

Airport:

Trip Planner

Search our weather history database for the weather conditions in past years. The results will help you decide how hot, cold, wet, or windy it might be!

Date:

Astronomy

Mar. 04, 2014 Rise Set
Actual Time 7:16 AM MST 6:36 PM MST
Civil Twilight 6:47 AM MST 7:05 PM MST
Nautical Twilight 6:13 AM MST 7:39 PM MST
Astronomical Twilight 5:39 AM MST 8:13 PM MST
Moon 8:54 AM MST (3/4) 11:00 PM MST (3/4)
Length of Visible Light 12h 18m
Length of Day
11h 19m
Waxing Crescent, 15% of the Moon is Illuminated
Mar 4
Waxing Crescent
Mar 8
First Quarter
Mar 16
Full
Mar 23
Last Quarter
Mar 30
New

Hourly Weather History & Observations

Time (MST) Temp. Windchill Dew Point Humidity Pressure Visibility Wind Dir Wind Speed Gust Speed Precip Events Conditions
12:51 AM 32.0 °F 28.7 °F 30.0 °F 92% 29.97 in 10.0 mi NNW 3.5 mph - N/A   Clear
1:27 AM 30.9 °F 27.5 °F 28.9 °F 92% 29.92 in 2.5 mi South 3.5 mph - N/A   Mostly Cloudy
1:29 AM 30.9 °F 27.5 °F 28.9 °F 92% 29.92 in 1.0 mi South 3.5 mph - N/A   Mostly Cloudy
1:32 AM 30.0 °F - 28.9 °F 96% 29.92 in 0.5 mi Calm Calm - N/A Fog Light Freezing Fog
1:38 AM 30.9 °F - 28.9 °F 92% 29.92 in 0.2 mi Calm Calm - N/A Fog Light Freezing Fog
1:51 AM 30.9 °F - 28.9 °F 92% 29.97 in 0.5 mi Calm Calm - N/A Fog Light Freezing Fog
2:51 AM 30.0 °F - 28.0 °F 92% 29.98 in 0.2 mi Calm Calm - N/A Fog Light Freezing Fog
3:27 AM 28.9 °F - 27.0 °F 92% 29.92 in 1.2 mi Calm Calm - N/A   Overcast
3:32 AM 28.9 °F - 27.0 °F 92% 29.92 in 0.8 mi Calm Calm - N/A   Mist
3:51 AM 28.9 °F - 27.0 °F 92% 29.98 in 0.2 mi Calm Calm - N/A Fog Light Freezing Fog
4:35 AM 28.9 °F - 28.0 °F 96% 29.92 in 1.2 mi Calm Calm - N/A   Overcast
4:51 AM 30.0 °F - 28.0 °F 92% 29.99 in 1.8 mi Calm Calm - N/A   Overcast
4:55 AM 30.0 °F - 28.0 °F 92% 29.93 in 3.0 mi Calm Calm - N/A   Overcast
5:51 AM 30.0 °F - 28.9 °F 96% 30.00 in 3.0 mi Calm Calm - N/A   Overcast
5:56 AM 30.0 °F 26.5 °F 28.9 °F 96% 29.94 in 1.8 mi South 3.5 mph - N/A   Overcast
6:03 AM 30.0 °F - 28.0 °F 92% 29.94 in 0.8 mi Calm Calm - N/A   Mist
6:51 AM 30.0 °F - 28.9 °F 96% 30.02 in 0.5 mi Calm Calm - N/A Fog Light Freezing Fog
7:51 AM 28.9 °F - 28.0 °F 96% 30.02 in 0.2 mi Calm Calm - N/A Fog Light Freezing Fog
8:51 AM 28.0 °F - 27.0 °F 96% 30.06 in 0.2 mi Calm Calm - N/A Fog Light Freezing Fog
9:51 AM 30.9 °F 27.5 °F 28.9 °F 92% 30.06 in 0.2 mi SW 3.5 mph - N/A Fog Light Freezing Fog
10:51 AM 30.0 °F 25.2 °F 28.9 °F 96% 30.06 in 0.5 mi South 4.6 mph - N/A Fog Light Freezing Fog
11:04 AM 30.9 °F - 30.0 °F 96% 30.00 in 1.2 mi Calm Calm - N/A   Overcast
11:07 AM 30.9 °F 27.5 °F 30.0 °F 96% 30.00 in 3.0 mi SW 3.5 mph - N/A   Mostly Cloudy
11:28 AM 32.0 °F 28.7 °F 30.0 °F 92% 30.01 in 8.0 mi SSE 3.5 mph - N/A   Mostly Cloudy
11:51 AM 32.0 °F 28.7 °F 28.9 °F 88% 30.07 in 10.0 mi SSE 3.5 mph - N/A   Partly Cloudy
12:51 PM 32.0 °F - 30.0 °F 92% 30.09 in 10.0 mi Calm Calm - N/A   Overcast
1:51 PM 37.9 °F 32.1 °F 28.9 °F 70% 30.07 in 10.0 mi SE 8.1 mph - 0.00 in   Overcast
2:51 PM 39.0 °F 32.8 °F 28.0 °F 65% 30.05 in 10.0 mi SSE 9.2 mph - N/A   Mostly Cloudy
3:51 PM 37.0 °F 29.8 °F 30.0 °F 76% 30.06 in 10.0 mi SSE 10.4 mph - N/A   Overcast
4:51 PM 36.0 °F 32.1 °F 30.9 °F 82% 30.06 in 10.0 mi SSW 4.6 mph - 0.00 in   Overcast
5:51 PM 36.0 °F - 30.9 °F 82% 30.06 in 10.0 mi Calm Calm - 0.00 in Rain Light Rain
6:51 PM 35.1 °F - 30.9 °F 85% 30.08 in 10.0 mi Calm Calm - 0.00 in   Overcast
7:51 PM 34.0 °F - 30.9 °F 89% 30.09 in 8.0 mi Calm Calm - N/A   Mostly Cloudy
8:51 PM 32.0 °F - 30.0 °F 92% 30.10 in 10.0 mi Calm Calm - N/A   Scattered Clouds
9:51 PM 30.9 °F - 28.0 °F 89% 30.09 in 7.0 mi Calm Calm - N/A   Clear
10:51 PM 30.9 °F 26.2 °F 28.9 °F 92% 30.10 in 10.0 mi NE 4.6 mph - N/A   Scattered Clouds
11:51 PM 30.9 °F 27.5 °F 28.9 °F 92% 30.08 in 10.0 mi NE 3.5 mph - N/A   Clear